Weather History for Reno, NV

Change the Weather History Date:

Thursday, December 20, 2012

  Actual Average Record
Temperature  
Mean Temperature 36 °F 34 °F  
Max Temperature 54 °F 45 °F 63 °F (2005)
Min Temperature 18 °F 24 °F -7 °F (1978)
Degree Days  
Heating Degree Days 29 30  
Month to date heating degree days 510 583  
Since 1 July heating degree days 1309 1686  
Cooling Degree Days 0 0  
Month to date cooling degree days 0 0  
Year to date cooling degree days 1272 839  
Moisture  
Dew Point 13 °F    
Average Humidity 50    
Maximum Humidity 80    
Minimum Humidity 20    
Precipitation  
Precipitation 0.00 in 0.04 in 0.73 in (1921)
Month to date precipitation 1.00 0.62  
Year to date precipitation 4.66 6.99  
Snow  
Snow 0.00 in 0.20 in 5.00 in (1921)
Month to date snowfall 0.4 2.5  
Since 1 July snowfall 1.2 6.0  
Snow Depth 0.00 in    
Sea Level Pressure  
Sea Level Pressure 30.03 in    
Wind  
Wind Speed 10 mph (South)    
Max Wind Speed 31 mph    
Max Gust Speed 39 mph    
Visibility 10 miles    
Events      
T = Trace of Precipitation, MM = Missing Value Source: NWS Daily Summary

Daily Weather History Graph

Daily Weather History Graph

Search for Another Location

Airport:

Trip Planner

Search our weather history database for the weather conditions in past years. The results will help you decide how hot, cold, wet, or windy it might be!

Date:

Astronomy

Dec. 20, 2012 Rise Set
Actual Time 7:15 AM PST 4:38 PM PST
Civil Twilight 6:45 AM PST 5:08 PM PST
Nautical Twilight 6:11 AM PST 5:42 PM PST
Astronomical Twilight 5:38 AM PST 6:15 PM PST
Moon 11:57 AM PST (12/20) 12:09 AM PST (12/20)
Length of Visible Light 10h 23m
Length of Day
9h 22m
First Quarter, 56% of the Moon is Illuminated
Dec 20
First Quarter
Dec 28
Full
Jan 4
Last Quarter
Jan 11
New
Jan 18
First Quarter

Hourly Weather History & Observations

Time (PST) Temp. Windchill Dew Point Humidity Pressure Visibility Wind Dir Wind Speed Gust Speed Precip Events Conditions
12:55 AM 21.9 °F - 12.9 °F 68% 30.19 in 10.0 mi Calm Calm - N/A   Clear
1:55 AM 19.9 °F 14.9 °F 12.0 °F 71% 30.17 in 10.0 mi WSW 3.5 mph - N/A   Clear
2:55 AM 21.0 °F 16.2 °F 12.9 °F 71% 30.15 in 10.0 mi NNW 3.5 mph - N/A   Clear
3:55 AM 21.0 °F - 12.9 °F 71% 30.12 in 10.0 mi Calm Calm - N/A   Clear
4:55 AM 18.0 °F - 12.0 °F 78% 30.15 in 10.0 mi Calm Calm - N/A   Clear
5:55 AM 18.0 °F 12.7 °F 12.0 °F 78% 30.15 in 10.0 mi SW 3.5 mph - N/A   Clear
6:55 AM 19.9 °F - 12.0 °F 71% 30.16 in 10.0 mi Calm Calm - N/A   Scattered Clouds
7:55 AM 19.0 °F 13.9 °F 12.9 °F 77% 30.16 in 10.0 mi SSE 3.5 mph - N/A   Scattered Clouds
8:55 AM 25.0 °F - 14.0 °F 63% 30.14 in 10.0 mi Calm Calm - N/A   Mostly Cloudy
9:55 AM 30.0 °F - 14.0 °F 51% 30.12 in 10.0 mi Calm Calm - N/A   Scattered Clouds
10:55 AM 35.1 °F - 15.1 °F 44% 30.08 in 10.0 mi Calm Calm - N/A   Scattered Clouds
11:55 AM 42.1 °F 39.2 °F 15.1 °F 34% 30.02 in 10.0 mi Variable 4.6 mph - N/A   Scattered Clouds
12:55 PM 52.0 °F - 15.1 °F 23% 29.95 in 10.0 mi SSW 9.2 mph 19.6 mph N/A   Scattered Clouds
1:55 PM 53.1 °F - 14.0 °F 21% 29.93 in 10.0 mi South 29.9 mph 36.8 mph N/A   Scattered Clouds
2:55 PM 52.0 °F - 14.0 °F 22% 29.93 in 10.0 mi SSW 23.0 mph 32.2 mph N/A   Scattered Clouds
3:55 PM 48.9 °F - 15.1 °F 26% 29.94 in 10.0 mi SSW 23.0 mph 31.1 mph N/A   Scattered Clouds
4:55 PM 45.0 °F 38.9 °F 14.0 °F 29% 29.96 in 10.0 mi South 12.7 mph - N/A   Scattered Clouds
5:55 PM 46.0 °F 38.8 °F 12.9 °F 26% 29.95 in 10.0 mi South 18.4 mph 26.5 mph N/A   Partly Cloudy
6:55 PM 45.0 °F 36.9 °F 12.0 °F 26% 29.95 in 10.0 mi South 20.7 mph 28.8 mph N/A   Partly Cloudy
7:55 PM 46.0 °F 38.5 °F 12.0 °F 25% 29.95 in 10.0 mi SSE 19.6 mph - N/A   Partly Cloudy
8:55 PM 45.0 °F 38.9 °F 10.9 °F 25% 29.93 in 10.0 mi SE 12.7 mph 20.7 mph N/A   Partly Cloudy
9:55 PM 46.9 °F - 10.9 °F 23% 29.90 in 10.0 mi South 20.7 mph 27.6 mph N/A   Partly Cloudy
10:55 PM 46.9 °F - 10.0 °F 22% 29.88 in 10.0 mi SSE 20.7 mph 31.1 mph N/A   Partly Cloudy
11:55 PM 46.9 °F - 9.0 °F 21% 29.84 in 10.0 mi SSE 13.8 mph 27.6 mph N/A   Clear